Location: Brookview Estates
(36.0476°N, 86.6931°W)
Time: 18:07:09
(UTC+00:00)

Hubble Space Telescope - Pass Details

Date: 15 July 2020
Orbit: 536 x 540 km, 28.5° (Epoch: 08 August)

Event Time Altitude Azimuth Distance (km) Brightness Sun altitude
Rises 01:27:57 0° 253° (WSW) 2,668 5.0 -5.1°
Reaches altitude 10° 01:30:25 10° 241° (WSW) 1,778 3.9 -5.5°
Maximum altitude 01:33:58 28° 182° (S) 1,016 1.9 -6.1°
Drops below altitude 10° 01:37:31 10° 122° (ESE) 1,779 2.7 -6.7°
Enters shadow 01:37:52 - 120° (ESE) 1,902 2.9 -6.8°
